Tracking 27112 objects as of 28-Mar-2023
HD Live streaming from Space Station
objects crossing your sky now

DELTA 1 DEB

Track DELTA 1 DEB now!
10-day predictions


NORAD ID: 5971
Int'l Code: 1967-006E
Perigee: 1,287.8 km
Apogee: 1,462.6 km
Inclination: 102.0 °
Period: 113.1 minutes
Semi major axis: 7746 km
RCS: 0.0243 m2 (small)
Launch date: January 26, 1967
Source: United States (US)
Launch site: AIR FORCE WESTERN TEST RANGE (AFWTR)

Note: This is SATELLITE DEBRIS
Your satellite tracking list
Your tracking list is empty




NASA's NSSDC Master Catalog

Two Line Element Set (TLE):
1 05971U 67006E   23086.89612451 -.00000038  00000-0  52050-4 0  9994
2 05971 101.9857 324.1175 0112856 146.9978 281.8336 12.73419072611235
Source of the keplerian elements: AFSPC